Date String (YYYY-MM-DD hh:mm:ss) UTC,Instrument flags,Ambient pressure (hPa),Sample flow (lpm),Bypass flow (lpm),Sample temperature (°C),Ambient temperature (°C),ASC tube jacket temperature (°C),LED temperature (°C),Box temperature (°C),Sample RH (%),Span deviation,Mass concentration (μg/m³),Mass concentration (μg/m³),Mass concentration (μg/m³)
DateTimeUTC,F1_M11,P_M11,Q1_M11,Q2_M11,T1_M11,T2_M11,T3_M11,T4_M11,T5_M11,U1_M11,ZSPAN_M11,X0_M11,X2_M11,X1_M11
2022-03-04 17:00:00,,0818.8,5.00,0.00,26.6,25.8,00.0,35.6,28.5,18.0,0000.0,0022.38,0008.63,0007.20
2022-03-04 17:01:00,,0818.8,5.01,0.00,26.6,25.8,00.0,35.6,28.5,18.2,0000.0,0021.94,0009.27,0007.80
2022-03-04 17:02:00,,0818.8,5.01,0.00,26.6,25.8,00.0,35.6,28.4,18.3,-000.1,0022.22,0009.76,0008.31
2022-03-04 17:03:00,,0818.8,5.00,0.00,26.6,25.8,00.0,35.6,28.4,18.2,-000.4,0023.77,0010.31,0008.82
2022-03-04 17:04:00,,0818.8,5.00,0.00,26.6,25.8,00.0,35.6,28.4,18.3,-000.5,0025.26,0010.90,0009.32
2022-03-04 17:05:00,,0818.7,5.00,0.00,26.6,25.8,00.0,35.6,28.5,18.2,-000.3,0026.35,0011.33,0009.71
2022-03-04 17:06:00,,0818.8,4.99,0.00,26.6,25.8,00.0,35.6,28.4,17.9,-000.5,0027.19,0011.60,0009.99
2022-03-04 17:07:00,,0818.7,5.01,0.00,26.6,25.8,00.0,35.6,28.4,18.0,-000.4,0027.97,0011.78,0010.20
2022-03-04 17:08:00,,0818.8,5.00,0.00,26.6,25.8,00.0,35.6,28.4,17.5,-000.5,0029.37,0011.96,0010.36
2022-03-04 17:09:00,,0818.8,5.00,0.00,26.6,25.8,00.0,35.6,28.4,17.9,-000.4,0029.11,0012.11,0010.50
2022-03-04 17:10:00,,0818.7,5.00,0.00,26.6,25.8,00.0,35.6,28.4,17.8,-000.2,0028.90,0012.15,0010.58
2022-03-04 17:11:00,,0818.7,5.01,0.00,26.6,25.8,00.0,35.6,28.4,18.1,-000.3,0028.19,0012.25,0010.65
2022-03-04 17:12:00,,0818.8,5.00,0.00,26.6,25.8,00.0,35.6,28.4,18.0,-000.3,0027.89,0012.42,0010.77
2022-03-04 17:13:00,,0818.8,5.01,0.00,26.6,25.8,00.0,35.6,28.4,17.4,-000.2,0028.61,0012.58,0010.86
2022-03-04 17:14:00,,0818.8,5.00,0.00,26.6,25.8,00.0,35.6,28.4,17.2,-000.0,0028.74,0012.67,0010.91
2022-03-04 17:15:00,,0818.8,5.01,0.00,26.5,25.7,00.0,35.6,28.3,17.3,-000.2,0028.62,0012.76,0011.00
2022-03-04 17:16:00,,0818.8,4.99,0.00,26.5,25.7,00.0,35.6,28.3,17.4,-000.5,0028.75,0012.91,0011.16
2022-03-04 17:17:00,,0818.8,4.99,0.00,26.5,25.7,00.0,35.5,28.2,17.3,-000.4,0028.63,0013.06,0011.30
2022-03-04 17:18:00,,0818.8,4.99,0.00,26.5,25.6,00.0,35.5,28.2,17.4,-000.3,0027.11,0013.28,0011.49
2022-03-04 17:19:00,,0818.6,5.02,0.00,26.4,25.6,00.0,35.5,28.2,17.4,-000.3,0026.20,0013.55,0011.69
2022-03-04 17:20:00,,0818.5,5.00,0.00,26.4,25.6,00.0,35.5,28.1,16.4,-000.5,0026.53,0013.67,0011.79
2022-03-04 17:21:00,,0818.5,5.00,0.00,26.4,25.6,00.0,35.5,28.1,16.5,-000.6,0027.45,0013.87,0011.92
2022-03-04 17:22:00,,0818.5,4.99,0.00,26.4,25.5,00.0,35.5,28.1,15.9,-000.7,0027.52,0013.98,0012.04
2022-03-04 17:23:00,,0818.5,5.00,0.00,26.3,25.5,00.0,35.5,28.1,16.4,-000.8,0027.75,0014.01,0012.10
2022-03-04 17:24:00,,0818.5,5.01,0.00,26.3,25.5,00.0,35.4,28.0,16.5,-000.8,0028.67,0014.11,0012.20
2022-03-04 17:25:00,,0818.5,5.01,0.00,26.3,25.5,00.0,35.4,28.0,16.0,-000.7,0027.79,0014.20,0012.31
2022-03-04 17:26:00,,0818.4,4.99,0.00,26.3,25.5,00.0,35.4,28.0,14.9,-000.9,0027.45,0014.11,0012.26
2022-03-04 17:27:00,,0818.4,5.00,0.00,26.2,25.4,00.0,35.4,28.0,12.5,-001.0,0026.63,0013.76,0011.95
2022-03-04 17:28:00,,0818.4,4.99,0.00,26.2,25.4,00.0,35.4,28.0,10.5,-000.9,0025.09,0013.04,0011.36
2022-03-04 17:29:00,,0818.4,5.00,0.00,26.2,25.4,00.0,35.4,28.0,12.2,-000.8,0024.36,0012.39,0010.83
2022-03-04 17:30:00,,0818.4,5.01,0.00,26.2,25.4,00.0,35.3,27.9,12.5,-001.1,0023.78,0011.92,0010.43
2022-03-04 17:31:00,,0818.4,4.99,0.00,26.2,25.4,00.0,35.3,27.9,10.9,-000.8,0022.61,0011.33,0009.91
2022-03-04 17:32:00,,0818.4,5.02,0.00,26.2,25.3,00.0,35.3,27.9,11.1,-000.8,0020.40,0010.66,0009.35
2022-03-04 17:33:00,,0818.4,5.01,0.00,26.1,25.3,00.0,35.3,27.9,11.2,-000.8,0019.04,0010.08,0008.81
2022-03-04 17:34:00,,0818.4,5.00,0.00,26.1,25.3,00.0,35.3,27.8,10.4,-000.4,0017.64,0009.35,0008.17
2022-03-04 17:35:00,,0818.4,5.00,0.00,26.1,25.3,00.0,35.3,27.8,10.2,-000.4,0015.55,0008.51,0007.43
2022-03-04 17:36:00,,0818.3,4.99,0.00,26.1,25.3,00.0,35.2,27.9,09.7,-000.3,0013.87,0007.68,0006.72
2022-03-04 17:37:00,,0818.3,5.01,0.00,26.1,25.3,00.0,35.2,27.9,10.9,0000.7,0012.63,0007.03,0006.15
2022-03-04 17:38:00,,0818.3,4.99,0.00,26.1,25.3,00.0,35.2,27.9,11.2,0001.5,0012.21,0006.68,0005.84
2022-03-04 17:39:00,,0818.4,5.00,0.00,26.1,25.3,00.0,35.2,27.9,11.6,0000.9,0011.96,0006.70,0005.82
2022-03-04 17:40:00,,0818.4,5.00,0.00,26.1,25.3,00.0,35.2,27.9,12.0,0000.4,0011.79,0006.64,0005.75
2022-03-04 17:41:00,,0818.4,4.99,0.00,26.1,25.3,00.0,35.2,27.9,11.2,0000.8,0011.25,0006.31,0005.49
2022-03-04 17:42:00,,0818.4,5.00,0.00,26.1,25.3,00.0,35.2,27.9,10.9,0000.2,0010.92,0006.12,0005.35
2022-03-04 17:43:00,,0818.4,5.00,0.00,26.1,25.3,00.0,35.2,27.9,10.3,0000.5,0011.07,0005.96,0005.20
2022-03-04 17:44:00,,0818.4,5.01,0.00,26.1,25.4,00.0,35.1,27.9,10.3,0000.9,0011.56,0005.80,0005.05
2022-03-04 17:45:00,,0818.3,5.00,0.00,26.1,25.4,00.0,35.1,27.9,10.6,0000.8,0011.60,0005.80,0005.01
2022-03-04 17:46:00,,0818.3,5.02,0.00,26.1,25.4,00.0,35.1,28.0,11.3,0000.6,0012.01,0005.84,0005.04
2022-03-04 17:47:00,,0818.3,5.00,0.00,26.1,25.4,00.0,35.1,28.0,10.0,0000.7,0013.06,0005.90,0005.05
2022-03-04 17:48:00,,0818.3,5.00,0.00,26.1,25.4,00.0,35.1,28.0,09.9,0000.5,0013.13,0005.84,0005.01
2022-03-04 17:49:00,,0818.3,4.99,0.00,26.1,25.5,00.0,35.1,28.0,10.6,0000.5,0013.37,0005.77,0004.94
2022-03-04 17:50:00,,0818.2,5.00,0.00,26.2,25.5,00.0,35.1,28.0,10.7,0001.1,0013.26,0005.67,0004.85
2022-03-04 17:51:00,,0818.2,5.00,0.00,26.2,25.5,00.0,35.1,28.1,09.6,0001.3,0012.95,0005.48,0004.70
2022-03-04 17:52:00,,0818.2,5.00,0.00,26.2,25.5,00.0,35.1,28.1,10.0,0001.4,0012.54,0005.34,0004.56
2022-03-04 17:53:00,,0818.1,5.00,0.00,26.2,25.5,00.0,35.1,28.0,10.1,0001.8,0012.44,0005.28,0004.51
2022-03-04 17:54:00,,0818.2,5.01,0.00,26.2,25.5,00.0,35.1,28.1,09.9,0001.9,0012.19,0005.25,0004.49
2022-03-04 17:55:00,,0818.2,5.00,0.00,26.2,25.5,00.0,35.1,28.0,09.6,0001.6,0011.49,0005.20,0004.45
2022-03-04 17:56:00,,0818.1,5.00,0.00,26.2,25.5,00.0,35.1,28.1,09.3,0001.4,0011.16,0005.08,0004.37
2022-03-04 17:57:00,,0818.1,4.99,0.00,26.2,25.5,00.0,35.2,28.1,09.0,0001.9,0010.77,0004.92,0004.22
2022-03-04 17:58:00,,0818.2,5.00,0.00,26.2,25.5,00.0,35.2,28.1,09.0,0002.2,0009.36,0004.69,0004.05
2022-03-04 17:59:00,,0818.1,5.00,0.00,26.2,25.5,00.0,35.2,28.0,09.2,0002.0,0009.75,0004.67,0003.98
